Thedford, NE

6:02 PM CST on February 23, 2017 (GMT -0600)
Thedford

Weather History for KTIF - July, 2012

Change the Weather History Date:

Friday, July 20, 2012

  Actual Average (KANW) Record (KANW)
Temperature  
Mean Temperature 87 °F -  
Max Temperature 102 °F 85 °F 105 °F (2002)
Min Temperature 72 °F 61 °F 60 °F (2000)
Cooling Degree Days 22    
Growing Degree Days 37 (Base 50)    
Moisture  
Dew Point 55 °F    
Average Humidity 35    
Maximum Humidity 63    
Minimum Humidity 15    
Precipitation  
Precipitation 0.00 in - - ()
Sea Level Pressure  
Sea Level Pressure 30.09 in    
Wind  
Wind Speed 13 mph (SSE)    
Max Wind Speed 21 mph    
Max Gust Speed 29 mph    
Visibility 10 miles    
Events Thunderstorm    
Averages and records for this station are not official NWS values.
T = Trace of Precipitation, MM = Missing Value Source: NWS Daily Summary

Daily Weather History Graph

Daily Weather History Graph

Search for Another Location

Airport or City:

Trip Planner

Search our weather history database for the weather conditions in past years. The results will help you decide how hot, cold, wet, or windy it might be!

Date:

Astronomy

Jul. 20, 2012 Rise Set
Actual Time 6:24 AM CDT 9:11 PM CDT
Civil Twilight 5:52 AM CDT 9:44 PM CDT
Nautical Twilight 5:10 AM CDT 10:25 PM CDT
Astronomical Twilight 4:23 AM CDT 11:12 PM CDT
Moon 8:06 AM CDT (7/20) 9:49 PM CDT (7/20)
Length of Visible Light 15h 52m
Length of Day
14h 47m
Waxing Crescent, 3% of the Moon is Illuminated
Jul 20
Waxing Crescent
Jul 26
First Quarter
Aug 1
Full
Aug 9
Last Quarter
Aug 17
New

Hourly Weather History & Observations

Time (CDT) Temp. Heat Index Dew Point Humidity Pressure Visibility Wind Dir Wind Speed Gust Speed Precip Events Conditions
12:15 AM 81.3 °F - 51.3 °F 35% 30.12 in 10.0 mi SE 9.2 mph 17.3 mph N/A   Clear
12:35 AM 79.2 °F - 51.8 °F 38% 30.12 in 10.0 mi SE 9.2 mph - N/A   Clear
12:55 AM 79.5 °F - 52.9 °F 40% 30.11 in 10.0 mi SSE 12.7 mph - N/A   Clear
1:15 AM 79.7 °F - 54.7 °F 42% 30.10 in 10.0 mi SSE 12.7 mph - N/A   Clear
1:35 AM 79.7 °F - 56.5 °F 45% 30.10 in 10.0 mi SSE 13.8 mph - N/A   Clear
1:55 AM 79.0 °F - 57.9 °F 48% 30.10 in 10.0 mi SSE 12.7 mph 18.4 mph N/A   Clear
2:35 AM 79.0 °F - 59.9 °F 52% 30.10 in 10.0 mi SSE 13.8 mph - N/A   Clear
2:55 AM 79.2 °F - 60.3 °F 52% 30.10 in 10.0 mi SSE 15.0 mph 19.6 mph N/A   Clear
3:15 AM 78.4 °F - 59.9 °F 53% 30.10 in 10.0 mi SSE 9.2 mph - N/A   Clear
3:35 AM 77.4 °F - 59.7 °F 54% 30.10 in 10.0 mi SSE 16.1 mph - N/A   Clear
4:15 AM 77.0 °F - 59.2 °F 54% 30.09 in 10.0 mi South 15.0 mph - N/A   Clear
4:35 AM 77.5 °F - 57.6 °F 50% 30.09 in 10.0 mi South 17.3 mph 23.0 mph N/A   Clear
4:55 AM 77.5 °F - 56.3 °F 48% 30.10 in 10.0 mi South 12.7 mph 18.4 mph N/A   Clear
5:15 AM 77.4 °F - 56.3 °F 48% 30.11 in 10.0 mi South 11.5 mph 17.3 mph N/A   Clear
5:35 AM 77.5 °F - 57.6 °F 50% 30.12 in 10.0 mi South 8.1 mph - N/A   Clear
5:55 AM 75.4 °F - 57.9 °F 54% 30.13 in 10.0 mi ESE 5.8 mph - N/A   Clear
6:15 AM 73.9 °F - 57.9 °F 57% 30.14 in 10.0 mi SE 5.8 mph - N/A   Clear
6:55 AM 73.4 °F - 57.7 °F 58% 30.14 in 10.0 mi ESE 3.5 mph - N/A Thunderstorm Clear
7:15 AM 72.1 °F - 59.0 °F 63% 30.16 in 10.0 mi NE 6.9 mph - N/A Thunderstorm Thunderstorm
7:35 AM 74.1 °F - 57.2 °F 55% 30.17 in 10.0 mi ESE 9.2 mph - N/A   Clear
7:55 AM 75.7 °F - 56.1 °F 50% 30.16 in 10.0 mi SE 11.5 mph - N/A Thunderstorm Clear
8:15 AM 77.2 °F - 55.6 °F 47% 30.16 in 10.0 mi SSE 12.7 mph - N/A   Clear
8:35 AM 78.1 °F - 55.4 °F 45% 30.15 in 10.0 mi South 18.4 mph - N/A   Clear
9:15 AM 79.7 °F - 55.6 °F 43% 30.14 in 10.0 mi South 17.3 mph 23.0 mph N/A   Clear
9:35 AM 80.2 °F 80.4 °F 55.8 °F 43% 30.14 in 10.0 mi South 16.1 mph 21.9 mph N/A   Clear
10:15 AM 81.7 °F 81.4 °F 56.3 °F 42% 30.14 in 10.0 mi South 19.6 mph - N/A   Clear
10:55 AM 85.3 °F 84.3 °F 57.2 °F 38% 30.14 in 10.0 mi SSW 15.0 mph - N/A   Clear
11:15 AM 88.0 °F 86.7 °F 57.0 °F 35% 30.13 in 10.0 mi South 13.8 mph - N/A   Clear
11:35 AM 91.8 °F 90.3 °F 57.0 °F 31% 30.13 in 10.0 mi South 16.1 mph 23.0 mph N/A   Clear
11:55 AM 94.8 °F 93.4 °F 56.5 °F 28% 30.13 in 10.0 mi South 19.6 mph - N/A   Clear
12:15 PM 95.0 °F 93.4 °F 56.5 °F 27% 30.13 in 10.0 mi SSE 19.6 mph - N/A   Clear
12:35 PM 95.2 °F 93.6 °F 56.7 °F 27% 30.12 in 10.0 mi South 18.4 mph 24.2 mph N/A   Clear
12:55 PM 95.5 °F 94.1 °F 56.3 °F 27% 30.12 in 10.0 mi South 17.3 mph 24.2 mph N/A   Clear
1:15 PM 97.7 °F 96.3 °F 55.9 °F 25% 30.10 in 10.0 mi South 18.4 mph 23.0 mph N/A   Clear
1:35 PM 98.6 °F 97.2 °F 55.8 °F 24% 30.10 in 10.0 mi SSE 19.6 mph 26.5 mph N/A   Clear
1:55 PM 99.5 °F 98.0 °F 55.8 °F 23% 30.10 in 10.0 mi South 16.1 mph 27.6 mph N/A   Clear
2:15 PM 100.4 °F 98.4 °F 53.2 °F 21% 30.09 in 10.0 mi South 20.7 mph 26.5 mph N/A   Clear
2:35 PM 100.6 °F - 52.7 °F 20% 30.08 in 10.0 mi South 15.0 mph 28.8 mph N/A   Clear
2:55 PM 100.4 °F - 52.7 °F 20% 30.08 in 10.0 mi SSE 16.1 mph 25.3 mph N/A   Clear
3:15 PM 101.3 °F - 52.3 °F 19% 30.07 in 10.0 mi South 17.3 mph 24.2 mph N/A   Clear
3:35 PM 101.7 °F - 50.7 °F 18% 30.07 in 10.0 mi South 16.1 mph 24.2 mph N/A   Clear
3:55 PM 101.7 °F - 49.8 °F 17% 30.07 in 10.0 mi SSW 11.5 mph 24.2 mph N/A   Clear
4:15 PM 102.2 °F - 47.1 °F 16% 30.06 in 10.0 mi South 17.3 mph 28.8 mph N/A   Clear
4:35 PM 102.0 °F - 46.4 °F 15% 30.05 in 10.0 mi South 18.4 mph 24.2 mph N/A   Clear
4:55 PM 102.2 °F - 49.1 °F 17% 30.05 in 10.0 mi South 19.6 mph 25.3 mph N/A   Clear
5:15 PM 102.2 °F - 47.5 °F 16% 30.04 in 10.0 mi South 17.3 mph 26.5 mph N/A   Clear
5:35 PM 101.8 °F - 47.8 °F 16% 30.04 in 10.0 mi South 17.3 mph 26.5 mph N/A   Clear
5:55 PM 102.0 °F - 45.9 °F 15% 30.03 in 10.0 mi South 18.4 mph 26.5 mph N/A   Clear
6:15 PM 101.3 °F - 44.8 °F 15% 30.03 in 10.0 mi South 19.6 mph 26.5 mph N/A   Clear
6:35 PM 99.7 °F - 45.7 °F 16% 30.03 in 10.0 mi South 18.4 mph 24.2 mph N/A   Clear
6:55 PM 98.6 °F - 46.9 °F 17% 30.03 in 10.0 mi South 16.1 mph 23.0 mph N/A   Clear
7:15 PM 97.7 °F - 47.3 °F 18% 30.03 in 10.0 mi South 13.8 mph 21.9 mph N/A   Clear
7:35 PM 96.8 °F - 48.0 °F 19% 30.04 in 10.0 mi South 12.7 mph 19.6 mph N/A   Clear
7:55 PM 95.7 °F - 48.0 °F 20% 30.04 in 10.0 mi SSE 13.8 mph 19.6 mph N/A   Clear
8:15 PM 94.5 °F - 48.2 °F 21% 30.03 in 10.0 mi South 12.7 mph - N/A   Clear
8:35 PM 92.7 °F 90.9 °F 55.6 °F 29% 30.03 in 10.0 mi SSE 11.5 mph - N/A   Clear
8:55 PM 90.7 °F 89.5 °F 57.9 °F 33% 30.04 in 10.0 mi SSE 11.5 mph - N/A   Clear
9:15 PM 89.1 °F 88.0 °F 58.3 °F 35% 30.04 in 10.0 mi SSE 11.5 mph - N/A   Clear
9:35 PM 88.0 °F 87.6 °F 60.1 °F 39% 30.04 in 10.0 mi SSE 13.8 mph - N/A   Clear
9:55 PM 86.5 °F 86.3 °F 60.4 °F 41% 30.05 in 10.0 mi SSE 11.5 mph - N/A   Clear
10:15 PM 85.5 °F 85.4 °F 60.6 °F 43% 30.05 in 10.0 mi SSE 13.8 mph 19.6 mph N/A   Clear
10:35 PM 84.4 °F 84.6 °F 60.8 °F 45% 30.06 in 10.0 mi SSE 10.4 mph - N/A   Clear
10:55 PM 82.8 °F 83.1 °F 60.8 °F 47% 30.07 in 10.0 mi SSE 10.4 mph - N/A   Clear
11:15 PM 82.4 °F 82.9 °F 60.8 °F 48% 30.07 in 10.0 mi SSE 10.4 mph - N/A   Clear